Location: Banios
(43.0451°N, 0.2335°E)
Time: 12:46:21
(UTC+00:00)

COSMO-SKYMED 1 - Pass Details

Date: 25 January 2021
Orbit: 621 x 623 km, 97.9° (Epoch: 26 February)

Event Time Altitude Azimuth Distance (km) Brightness Sun altitude
Rises 06:05:12 0° 198° (SSW) 2,890 5.9 -13.9°
Reaches altitude 10° 06:07:46 10° 213° (SSW) 1,989 5.0 -13.4°
Maximum altitude 06:11:12 23° 266° (W) 1,344 3.7 -12.8°
Enters shadow 06:13:07 17° 302° (WNW) 1,579 4.0 -12.5°
